When you browse on this site, cookies collect data to enhance your experience and personalize the content and advertising you see.
Visit our Privacy Policy to learn more. By continuing to use the site, you agree to this use of cookies and data.
  • In Austria
  • List of Countries
  • For 7 days
  • Water Temperature
  • Weather Map
  • News
  • Weather Widgets
  • user-avatar
    Login

    Hourly Weather Naftalan

    Today, 11 December, Wednesday

    Time Temperature Precipitation Wind Pressure Humidity
    00:00 +10°C° 0.4 mm 4 mps 767 mmHg 88%
    01:00 +8°C° 0.2 mm 4 mps 767 mmHg 87%
    02:00 +8°C° 0.2 mm 4 mps 767 mmHg 85%
    03:00 +8°C° 0 mm 5 mps 767 mmHg 85%
    04:00 +8°C° 0 mm 5 mps 767 mmHg 84%
    05:00 +8°C° 0 mm 4 mps 767 mmHg 84%
    06:00 +7°C° 0 mm 4 mps 767 mmHg 84%
    07:00 +8°C° 0 mm 4 mps 767 mmHg 82%
    08:00 +8°C° 0 mm 5 mps 767 mmHg 81%
    09:00 +8°C° 0 mm 5 mps 767 mmHg 80%
    10:00 +10°C° 0 mm 4 mps 767 mmHg 77%
    11:00 +11°C° 0 mm 4 mps 767 mmHg 73%
    12:00 +11°C° 0 mm 4 mps 766 mmHg 70%
    13:00 +11°C° 0 mm 4 mps 766 mmHg 70%
    14:00 +11°C° 0 mm 3 mps 766 mmHg 69%
    15:00 +11°C° 0 mm 3 mps 766 mmHg 68%
    16:00 +10°C° 0 mm 3 mps 767 mmHg 70%
    17:00 +10°C° 0 mm 3 mps 767 mmHg 72%
    18:00 +9°C° 0 mm 3 mps 767 mmHg 74%
    19:00 +9°C° 0 mm 3 mps 767 mmHg 74%
    20:00 +9°C° 0 mm 3 mps 768 mmHg 73%
    21:00 +9°C° 0 mm 3 mps 768 mmHg 73%
    22:00 +9°C° 0 mm 3 mps 768 mmHg 72%
    23:00 +9°C° 0 mm 3 mps 768 mmHg 72%

    Tomorrow, 12 December, Thursday

    Time Temperature Precipitation Wind Pressure Humidity
    00:00 +9°C° 0 mm 3 mps 768 mmHg 71%
    01:00 +9°C° 0 mm 3 mps 768 mmHg 71%
    02:00 +9°C° 0 mm 3 mps 768 mmHg 71%
    03:00 +9°C° 0 mm 3 mps 767 mmHg 71%
    04:00 +9°C° 0 mm 3 mps 768 mmHg 71%
    05:00 +9°C° 0 mm 3 mps 768 mmHg 72%
    06:00 +9°C° 0 mm 3 mps 768 mmHg 72%
    07:00 +9°C° 0 mm 3 mps 768 mmHg 70%
    08:00 +10°C° 0 mm 3 mps 768 mmHg 69%
    09:00 +10°C° 0 mm 3 mps 768 mmHg 67%
    10:00 +10°C° 0 mm 3 mps 768 mmHg 67%
    11:00 +10°C° 0 mm 3 mps 768 mmHg 67%
    12:00 +11°C° 0 mm 3 mps 767 mmHg 67%
    13:00 +11°C° 0 mm 3 mps 767 mmHg 67%
    14:00 +11°C° 0 mm 4 mps 767 mmHg 68%
    15:00 +11°C° 0 mm 4 mps 766 mmHg 69%
    16:00 +10°C° 0 mm 4 mps 766 mmHg 70%
    17:00 +10°C° 0 mm 4 mps 766 mmHg 72%
    18:00 +9°C° 0 mm 5 mps 766 mmHg 73%
    19:00 +9°C° 0 mm 5 mps 766 mmHg 75%
    20:00 +9°C° 0 mm 5 mps 766 mmHg 76%
    21:00 +10°C° 0 mm 5 mps 766 mmHg 78%
    22:00 +10°C° 0 mm 5 mps 765 mmHg 78%
    23:00 +10°C° 0 mm 5 mps 765 mmHg 79%

    Day after tomorrow, 13 December, Friday

    Time Temperature Precipitation Wind Pressure Humidity
    00:00 +10°C° 0 mm 5 mps 765 mmHg 80%
    01:00 +10°C° 0.1 mm 5 mps 765 mmHg 81%
    02:00 +10°C° 0.1 mm 5 mps 764 mmHg 82%
    03:00 +10°C° 0.1 mm 5 mps 764 mmHg 83%
    04:00 +10°C° 0.3 mm 5 mps 764 mmHg 84%
    05:00 +10°C° 0.3 mm 5 mps 764 mmHg 84%
    06:00 +10°C° 0.3 mm 5 mps 764 mmHg 85%
    07:00 +10°C° 0.6 mm 5 mps 764 mmHg 86%
    08:00 +9°C° 0.6 mm 5 mps 764 mmHg 86%
    09:00 +9°C° 0.6 mm 5 mps 765 mmHg 87%
    10:00 +10°C° 0.7 mm 4 mps 764 mmHg 87%
    11:00 +10°C° 0.7 mm 4 mps 764 mmHg 86%
    12:00 +10°C° 0.7 mm 4 mps 764 mmHg 86%
    13:00 +10°C° 0.4 mm 4 mps 763 mmHg 85%
    14:00 +10°C° 0.4 mm 3 mps 763 mmHg 83%
    15:00 +10°C° 0.4 mm 3 mps 763 mmHg 81%
    16:00 +10°C° 0.2 mm 3 mps 764 mmHg 82%
    17:00 +10°C° 0.2 mm 2 mps 764 mmHg 82%
    18:00 +9°C° 0.2 mm 2 mps 764 mmHg 82%
    19:00 +9°C° 0.1 mm 2 mps 764 mmHg 81%
    20:00 +9°C° 0.1 mm 3 mps 764 mmHg 79%
    21:00 +9°C° 0.1 mm 3 mps 765 mmHg 77%
    22:00 +9°C° 0 mm 3 mps 765 mmHg 75%
    23:00 +9°C° 0 mm 3 mps 765 mmHg 74%

    14 December, Saturday

    Time Temperature Precipitation Wind Pressure Humidity
    00:00 +8°C° 0 mm 4 mps 765 mmHg 72%
    01:00 +9°C° 0 mm 3 mps 765 mmHg 72%
    02:00 +9°C° 0 mm 3 mps 765 mmHg 72%
    03:00 +8°C° 0 mm 3 mps 765 mmHg 72%
    04:00 +8°C° 0 mm 3 mps 765 mmHg 72%
    05:00 +8°C° 0 mm 3 mps 766 mmHg 72%
    06:00 +8°C° 0 mm 3 mps 766 mmHg 72%
    07:00 +8°C° 0 mm 2 mps 766 mmHg 70%
    08:00 +9°C° 0 mm 2 mps 767 mmHg 68%
    09:00 +9°C° 0 mm 2 mps 767 mmHg 66%
    10:00 +10°C° 0 mm 2 mps 767 mmHg 63%
    11:00 +12°C° 0 mm 1 mps 766 mmHg 60%
    12:00 +12°C° 0 mm 1 mps 766 mmHg 57%
    13:00 +13°C° 0 mm 1 mps 766 mmHg 59%
    14:00 +13°C° 0 mm 1 mps 766 mmHg 61%
    15:00 +13°C° 0 mm 1 mps 766 mmHg 62%
    16:00 +13°C° 0 mm 1 mps 766 mmHg 67%
    17:00 +12°C° 0 mm 1 mps 767 mmHg 72%
    18:00 +12°C° 0 mm 1 mps 767 mmHg 77%
    19:00 +12°C° 0 mm 1 mps 767 mmHg 78%
    20:00 +12°C° 0 mm 1 mps 767 mmHg 80%
    21:00 +12°C° 0 mm 1 mps 768 mmHg 82%
    22:00 +12°C° 0 mm 1 mps 767 mmHg 83%
    23:00 +12°C° 0 mm 1 mps 767 mmHg 84%

    15 December, Sunday

    Time Temperature Precipitation Wind Pressure Humidity
    00:00 +11°C° 0 mm 1 mps 767 mmHg 85%
    01:00 +10°C° 0 mm 2 mps 767 mmHg 86%
    02:00 +10°C° 0 mm 2 mps 767 mmHg 86%
    03:00 +10°C° 0 mm 2 mps 767 mmHg 87%
    04:00 +9°C° 0 mm 2 mps 767 mmHg 85%
    05:00 +9°C° 0 mm 2 mps 767 mmHg 84%
    06:00 +9°C° 0 mm 2 mps 767 mmHg 83%
    07:00 +9°C° 0 mm 2 mps 768 mmHg 80%
    08:00 +10°C° 0 mm 2 mps 768 mmHg 77%
    09:00 +10°C° 0 mm 2 mps 768 mmHg 74%
    10:00 +12°C° 0 mm 2 mps 768 mmHg 72%
    11:00 +12°C° 0 mm 2 mps 768 mmHg 70%
    12:00 +13°C° 0 mm 2 mps 767 mmHg 68%
    13:00 +13°C° 0 mm 1 mps 767 mmHg 68%
    14:00 +13°C° 0 mm 1 mps 767 mmHg 68%
    15:00 +14°C° 0 mm 1 mps 767 mmHg 68%
    16:00 +12°C° 0 mm 0 mps 767 mmHg 71%
    17:00 +11°C° 0 mm 0 mps 768 mmHg 74%
    18:00 +11°C° 0 mm 0 mps 768 mmHg 77%
    19:00 +11°C° 0 mm 0 mps 768 mmHg 76%
    20:00 +11°C° 0 mm 1 mps 769 mmHg 75%
    21:00 +11°C° 0 mm 1 mps 769 mmHg 75%
    22:00 +11°C° 0 mm 1 mps 769 mmHg 73%
    23:00 +10°C° 0 mm 2 mps 769 mmHg 72%

    16 December, Monday

    Time Temperature Precipitation Wind Pressure Humidity
    00:00 +10°C° 0 mm 2 mps 769 mmHg 70%
    01:00 +9°C° 0 mm 2 mps 770 mmHg 70%
    02:00 +9°C° 0 mm 2 mps 770 mmHg 70%
    03:00 +9°C° 0 mm 2 mps 770 mmHg 69%
    04:00 +9°C° 0 mm 2 mps 770 mmHg 70%
    05:00 +8°C° 0 mm 3 mps 771 mmHg 71%
    06:00 +8°C° 0 mm 3 mps 771 mmHg 72%
    07:00 +9°C° 0 mm 3 mps 771 mmHg 76%
    08:00 +10°C° 0 mm 4 mps 772 mmHg 79%
    09:00 +11°C° 0 mm 4 mps 772 mmHg 82%
    10:00 +11°C° 0 mm 4 mps 772 mmHg 79%
    11:00 +12°C° 0 mm 5 mps 772 mmHg 75%
    12:00 +12°C° 0 mm 5 mps 773 mmHg 72%
    13:00 +12°C° 0 mm 5 mps 772 mmHg 71%
    14:00 +12°C° 0 mm 5 mps 772 mmHg 71%
    15:00 +12°C° 0 mm 5 mps 772 mmHg 70%
    16:00 +11°C° 0 mm 4 mps 773 mmHg 74%
    17:00 +11°C° 0 mm 4 mps 773 mmHg 77%
    18:00 +10°C° 0 mm 3 mps 773 mmHg 80%
    19:00 +10°C° 0 mm 3 mps 773 mmHg 81%
    20:00 +10°C° 0 mm 3 mps 774 mmHg 81%
    21:00 +9°C° 0 mm 2 mps 774 mmHg 82%
    22:00 +9°C° 0 mm 2 mps 774 mmHg 82%
    23:00 +9°C° 0 mm 2 mps 774 mmHg 83%
    Show more